Columbia Owens, SC

1:37 PM EST on November 12, 2019 (GMT -0500)
Columbia Owens Downtown

Weather History for KCUB - September, 2019

Change the Weather History Date:

Thursday, September 26, 2019

  Actual Average Record
Temperature  
Mean Temperature 87 °F 73 °F  
Max Temperature 98 °F 83 °F 98 °F (2019)
Min Temperature 75 °F 63 °F 52 °F (2001)
Degree Days  
Heating Degree Days 0 0  
Month to date heating degree days 0 0  
Since 1 July heating degree days 0 0  
Cooling Degree Days 22 8  
Month to date cooling degree days 432 300  
Year to date cooling degree days 2555 2118  
Growing Degree Days 36 (Base 50)    
Moisture  
Dew Point 68 °F    
Average Humidity 67    
Maximum Humidity 94    
Minimum Humidity 28    
Precipitation  
Precipitation 0.00 in 0.12 in 1.26 in (2018)
Month to date precipitation 0.79 3.54  
Year to date precipitation 23.97 35.39  
Sea Level Pressure  
Sea Level Pressure 29.89 in    
Wind  
Wind Speed 3 mph (SW)    
Max Wind Speed 12 mph    
Max Gust Speed 15 mph    
Visibility 9 miles    
Events      
T = Trace of Precipitation, MM = Missing Value Source: NWS Daily Summary

Daily Weather History Graph

Daily Weather History Graph

Search for Another Location

Airport or City:

Astronomy

Sep. 26, 2019 Rise Set
Actual Time 7:14 AM EDT 7:15 PM EDT
Civil Twilight 6:49 AM EDT 7:40 PM EDT
Nautical Twilight 6:20 AM EDT 8:09 PM EDT
Astronomical Twilight 5:51 AM EDT 8:38 PM EDT
Moon 4:31 AM EDT (9/26) 6:18 PM EDT (9/26)
Length of Visible Light 12h 50m
Length of Day
12h 00m
Waning Crescent, 7% of the Moon is Illuminated
Sep 26
Waning Crescent
Sep 28
New
Oct 5
First Quarter
Oct 13
Full
Oct 21
Last Quarter

Hourly Weather History & Observations

Time (EDT) Temp. Heat Index Dew Point Humidity Pressure Visibility Wind Dir Wind Speed Gust Speed Precip Events Conditions
12:53 AM 77.0 °F - 70.0 °F 79% 29.89 in 10.0 mi Calm Calm - N/A   Clear
1:17 AM 77.0 °F - 70.0 °F 79% 29.90 in 10.0 mi Calm Calm - N/A   Mostly Cloudy
1:41 AM 77.0 °F - 71.1 °F 82% 29.89 in 10.0 mi Calm Calm - N/A   Overcast
1:53 AM 77.0 °F - 71.1 °F 82% 29.88 in 10.0 mi Calm Calm - N/A   Overcast
2:53 AM 75.9 °F - 72.0 °F 87% 29.88 in 10.0 mi Calm Calm - N/A   Overcast
3:53 AM 75.9 °F - 72.0 °F 87% 29.86 in 9.0 mi Calm Calm - N/A   Overcast
4:53 AM 75.9 °F - 73.0 °F 91% 29.87 in 8.0 mi South 3.5 mph - N/A   Overcast
5:27 AM 75.9 °F - 72.0 °F 87% 29.88 in 8.0 mi South 3.5 mph - N/A   Overcast
5:53 AM 75.9 °F - 72.0 °F 87% 29.88 in 8.0 mi SSW 3.5 mph - N/A   Overcast
6:53 AM 75.0 °F - 72.0 °F 90% 29.89 in 7.0 mi South 3.5 mph - N/A   Overcast
7:53 AM 75.9 °F - 72.0 °F 87% 29.91 in 6.0 mi SW 5.8 mph - N/A   Overcast
8:04 AM 75.9 °F - 71.1 °F 85% 29.92 in 7.0 mi WSW 4.6 mph - N/A   Overcast
8:53 AM 77.0 °F - 71.1 °F 82% 29.92 in 7.0 mi SW 4.6 mph - N/A   Overcast
9:22 AM 78.1 °F - 71.1 °F 79% 29.93 in 7.0 mi SSE 4.6 mph - N/A   Overcast
9:53 AM 78.1 °F - 71.1 °F 79% 29.93 in 7.0 mi SW 3.5 mph - N/A   Mostly Cloudy
10:01 AM 79.0 °F - 71.1 °F 77% 29.94 in 8.0 mi SW 4.6 mph - N/A   Scattered Clouds
10:53 AM 82.9 °F 87.0 °F 70.0 °F 65% 29.93 in 10.0 mi Variable 3.5 mph - N/A   Clear
11:53 AM 89.1 °F 91.3 °F 66.0 °F 46% 29.91 in 10.0 mi Variable 5.8 mph - N/A   Clear
12:53 PM 91.9 °F 91.8 °F 61.0 °F 35% 29.89 in 10.0 mi North - - N/A   Clear
1:53 PM 95.0 °F 94.0 °F 57.9 °F 29% 29.87 in 10.0 mi West 6.9 mph - N/A   Clear
2:53 PM 95.0 °F 95.2 °F 61.0 °F 32% 29.84 in 10.0 mi Calm Calm - N/A   Clear
3:53 PM 96.1 °F 96.4 °F 61.0 °F 31% 29.83 in 10.0 mi Variable 4.6 mph - N/A   Clear
4:53 PM 97.0 °F 97.8 °F 62.1 °F 31% 29.82 in 10.0 mi WNW 5.8 mph - N/A   Mostly Cloudy
5:53 PM 96.1 °F 96.9 °F 62.1 °F 32% 29.82 in 10.0 mi West 6.9 mph - N/A   Clear
7:53 PM 89.1 °F 91.0 °F 64.9 °F 45% 29.84 in 10.0 mi Calm Calm - N/A   Clear
8:53 PM 84.9 °F 87.1 °F 66.0 °F 53% 29.87 in 10.0 mi Calm Calm - N/A   Clear
9:53 PM 82.9 °F 85.4 °F 66.9 °F 58% 29.89 in 10.0 mi Calm Calm - N/A   Clear
10:53 PM 81.0 °F 84.4 °F 70.0 °F 69% 29.91 in 10.0 mi Variable 3.5 mph - N/A   Clear
11:53 PM 80.1 °F 83.6 °F 71.1 °F 74% 29.92 in 10.0 mi Calm Calm - N/A   Clear